TimeEST,TemperatureF,Dew PointF,Humidity,Sea Level PressureIn,VisibilityMPH,Wind Direction,Wind SpeedMPH,Gust SpeedMPH,PrecipitationIn,Events,Conditions,WindDirDegrees,DateUTC
12:54 AM,42.1,39.0,89,30.02,10.0,Calm,Calm,-,N/A,,Clear,0,2008-11-07 05:54:00
1:54 AM,39.9,37.0,89,30.01,10.0,Calm,Calm,-,N/A,,Clear,0,2008-11-07 06:54:00
2:54 AM,39.0,37.9,96,30.01,10.0,Calm,Calm,-,N/A,,Clear,0,2008-11-07 07:54:00
3:54 AM,37.9,35.1,89,30.00,10.0,Calm,Calm,-,N/A,,Clear,0,2008-11-07 08:54:00
4:54 AM,37.0,36.0,96,30.01,10.0,Calm,Calm,-,N/A,,Clear,0,2008-11-07 09:54:00
5:54 AM,35.1,34.0,96,30.02,9.0,Calm,Calm,-,N/A,,Clear,0,2008-11-07 10:54:00
6:54 AM,35.1,33.1,92,30.02,10.0,Calm,Calm,-,N/A,,Clear,0,2008-11-07 11:54:00
7:54 AM,37.9,35.1,89,30.03,10.0,Calm,Calm,-,N/A,,Clear,0,2008-11-07 12:54:00
8:54 AM,42.8,39.2,87,30.03,10.0,Calm,Calm,-,N/A,,Clear,0,2008-11-07 13:54:00
9:54 AM,51.1,42.1,71,30.00,10.0,Calm,Calm,-,N/A,,Clear,0,2008-11-07 14:54:00
10:54 AM,60.1,39.9,47,29.98,7.0,Calm,Calm,-,N/A,,Clear,0,2008-11-07 15:54:00
11:54 AM,66.0,42.1,42,29.93,10.0,South,6.9,-,N/A,,Clear,170,2008-11-07 16:54:00
12:54 PM,69.1,39.0,33,29.89,10.0,SE,8.1,-,N/A,,Clear,130,2008-11-07 17:54:00
1:54 PM,72.0,39.0,30,29.86,10.0,South,12.7,-,N/A,,Clear,170,2008-11-07 18:54:00
2:54 PM,70.0,46.0,42,29.85,10.0,SSW,16.1,24.2,N/A,,Clear,200,2008-11-07 19:54:00
3:54 PM,69.1,50.0,51,29.84,10.0,SSW,11.5,23.0,N/A,,Clear,200,2008-11-07 20:54:00
4:54 PM,66.9,50.0,54,29.85,10.0,SSW,12.7,-,N/A,,Overcast,210,2008-11-07 21:54:00
5:54 PM,64.9,50.0,58,29.86,10.0,South,8.1,-,N/A,,Overcast,190,2008-11-07 22:54:00
6:54 PM,64.0,50.0,60,29.87,10.0,South,8.1,-,N/A,,Overcast,190,2008-11-07 23:54:00
7:54 PM,63.0,51.1,65,29.86,10.0,South,6.9,20.7,N/A,,Overcast,190,2008-11-08 00:54:00
8:54 PM,62.1,52.0,70,29.84,10.0,South,10.4,-,N/A,,Overcast,180,2008-11-08 01:54:00
9:54 PM,60.1,55.0,83,29.83,10.0,South,11.5,-,0.00,Rain,Light Rain,180,2008-11-08 02:54:00
10:21 PM,59.0,55.4,88,29.87,10.0,SSW,6.9,-,0.01,Rain,Light Rain,200,2008-11-08 03:21:00
10:54 PM,57.9,55.9,93,29.81,10.0,South,3.5,-,0.02,,Overcast,190,2008-11-08 03:54:00
11:17 PM,59.0,55.4,88,29.85,10.0,South,9.2,-,N/A,,Mostly Cloudy,180,2008-11-08 04:17:00
11:54 PM,57.9,55.9,93,29.79,10.0,South,8.1,-,0.00,Rain,Light Rain,180,2008-11-08 04:54:00